When you browse on this site, cookies collect data to enhance your experience and personalize the content and advertising you see.
Visit our Privacy Policy to learn more. By continuing to use the site, you agree to this use of cookies and data.
  • In Hungary
  • List of Countries
  • For 7 days
  • Water Temperature
  • Satellite Maps
  • Weather Map
  • News
  • Weather Widgets
  • user-avatar
    Login

    Hourly Weather Melilla

    Today, 24 January, Thursday

    Time Temperature Precipitation Wind Pressure Humidity
    00:00 +13°C° 0 mm 14 mps 759 mmHg 72%
    01:00 +13°C° 0 mm 13 mps 759 mmHg 74%
    02:00 +13°C° 0 mm 13 mps 759 mmHg 75%
    03:00 +12°C° 0 mm 12 mps 759 mmHg 77%
    04:00 +12°C° 0 mm 12 mps 758 mmHg 79%
    05:00 +12°C° 0 mm 11 mps 758 mmHg 80%
    06:00 +12°C° 0 mm 10 mps 758 mmHg 82%
    07:00 +13°C° 0 mm 10 mps 758 mmHg 80%
    08:00 +13°C° 0 mm 10 mps 758 mmHg 77%
    09:00 +15°C° 0 mm 9 mps 758 mmHg 75%
    10:00 +16°C° 0 mm 10 mps 758 mmHg 71%
    11:00 +17°C° 0 mm 10 mps 759 mmHg 67%
    12:00 +18°C° 0 mm 11 mps 759 mmHg 63%
    13:00 +18°C° 0 mm 10 mps 758 mmHg 63%
    14:00 +18°C° 0 mm 10 mps 758 mmHg 64%
    15:00 +18°C° 0 mm 10 mps 758 mmHg 65%
    16:00 +17°C° 0 mm 9 mps 758 mmHg 70%
    17:00 +16°C° 0 mm 8 mps 759 mmHg 75%
    18:00 +15°C° 0 mm 7 mps 759 mmHg 80%
    19:00 +15°C° 0 mm 6 mps 760 mmHg 81%
    20:00 +15°C° 0 mm 6 mps 760 mmHg 83%
    21:00 +15°C° 0 mm 6 mps 761 mmHg 85%
    22:00 +15°C° 0 mm 5 mps 761 mmHg 84%
    23:00 +14°C° 0 mm 5 mps 761 mmHg 83%

    Tomorrow, 25 January, Friday

    Time Temperature Precipitation Wind Pressure Humidity
    00:00 +14°C° 0 mm 4 mps 761 mmHg 82%
    01:00 +14°C° 0 mm 4 mps 761 mmHg 80%
    02:00 +14°C° 0 mm 3 mps 761 mmHg 78%
    03:00 +13°C° 0 mm 3 mps 762 mmHg 77%
    04:00 +13°C° 0 mm 3 mps 762 mmHg 77%
    05:00 +14°C° 0 mm 2 mps 762 mmHg 77%
    06:00 +14°C° 0 mm 2 mps 762 mmHg 78%
    07:00 +14°C° 0 mm 2 mps 762 mmHg 74%
    08:00 +15°C° 0 mm 2 mps 763 mmHg 70%
    09:00 +16°C° 0 mm 2 mps 763 mmHg 66%
    10:00 +17°C° 0 mm 2 mps 763 mmHg 62%
    11:00 +18°C° 0 mm 2 mps 763 mmHg 58%
    12:00 +19°C° 0 mm 2 mps 763 mmHg 55%
    13:00 +20°C° 0 mm 2 mps 763 mmHg 51%
    14:00 +21°C° 0 mm 1 mps 763 mmHg 48%
    15:00 +22°C° 0 mm 1 mps 762 mmHg 44%
    16:00 +20°C° 0 mm 1 mps 763 mmHg 48%
    17:00 +18°C° 0 mm 2 mps 763 mmHg 52%
    18:00 +17°C° 0 mm 2 mps 763 mmHg 56%
    19:00 +16°C° 0 mm 1 mps 763 mmHg 59%
    20:00 +15°C° 0 mm 1 mps 764 mmHg 63%
    21:00 +15°C° 0 mm 1 mps 764 mmHg 66%
    22:00 +14°C° 0 mm 1 mps 764 mmHg 68%
    23:00 +14°C° 0 mm 1 mps 764 mmHg 70%

    Day after tomorrow, 26 January, Saturday

    Time Temperature Precipitation Wind Pressure Humidity
    00:00 +14°C° 0 mm 1 mps 764 mmHg 72%
    01:00 +14°C° 0 mm 1 mps 764 mmHg 74%
    02:00 +13°C° 0 mm 1 mps 764 mmHg 76%
    03:00 +12°C° 0 mm 0 mps 764 mmHg 78%
    04:00 +12°C° 0 mm 0 mps 764 mmHg 77%
    05:00 +12°C° 0 mm 0 mps 764 mmHg 76%
    06:00 +11°C° 0 mm 0 mps 764 mmHg 76%
    07:00 +14°C° 0 mm 1 mps 764 mmHg 67%
    08:00 +15°C° 0 mm 1 mps 765 mmHg 59%
    09:00 +18°C° 0 mm 1 mps 765 mmHg 51%
    10:00 +18°C° 0 mm 2 mps 765 mmHg 47%
    11:00 +19°C° 0 mm 2 mps 765 mmHg 43%
    12:00 +20°C° 0 mm 3 mps 765 mmHg 39%
    13:00 +20°C° 0 mm 3 mps 765 mmHg 39%
    14:00 +20°C° 0 mm 3 mps 764 mmHg 40%
    15:00 +21°C° 0 mm 4 mps 764 mmHg 40%
    16:00 +19°C° 0 mm 3 mps 764 mmHg 47%
    17:00 +18°C° 0 mm 3 mps 764 mmHg 54%
    18:00 +16°C° 0 mm 3 mps 764 mmHg 60%
    19:00 +16°C° 0 mm 2 mps 764 mmHg 64%
    20:00 +15°C° 0 mm 2 mps 764 mmHg 67%
    21:00 +15°C° 0 mm 1 mps 764 mmHg 70%
    22:00 +14°C° 0 mm 1 mps 764 mmHg 69%
    23:00 +14°C° 0 mm 1 mps 764 mmHg 68%

    27 January, Sunday

    Time Temperature Precipitation Wind Pressure Humidity
    00:00 +14°C° 0 mm 1 mps 764 mmHg 67%
    01:00 +14°C° 0 mm 1 mps 764 mmHg 66%
    02:00 +14°C° 0 mm 2 mps 763 mmHg 65%
    03:00 +14°C° 0 mm 2 mps 763 mmHg 64%
    04:00 +13°C° 0 mm 3 mps 763 mmHg 65%
    05:00 +13°C° 0 mm 3 mps 763 mmHg 66%
    06:00 +12°C° 0 mm 3 mps 763 mmHg 67%
    07:00 +14°C° 0 mm 3 mps 763 mmHg 64%
    08:00 +15°C° 0 mm 4 mps 763 mmHg 60%
    09:00 +17°C° 0 mm 4 mps 763 mmHg 56%
    10:00 +17°C° 0 mm 5 mps 763 mmHg 55%
    11:00 +19°C° 0 mm 6 mps 763 mmHg 54%
    12:00 +18°C° 0 mm 7 mps 763 mmHg 53%
    13:00 +20°C° 0 mm 8 mps 762 mmHg 54%
    14:00 +19°C° 0 mm 9 mps 762 mmHg 55%
    15:00 +19°C° 0 mm 10 mps 761 mmHg 56%
    16:00 +18°C° 0 mm 10 mps 761 mmHg 62%
    17:00 +17°C° 0 mm 11 mps 762 mmHg 68%
    18:00 +16°C° 0 mm 11 mps 762 mmHg 73%
    19:00 +14°C° 0 mm 11 mps 762 mmHg 75%
    20:00 +14°C° 0 mm 11 mps 763 mmHg 77%
    21:00 +14°C° 0 mm 10 mps 764 mmHg 79%
    22:00 +13°C° 0 mm 10 mps 764 mmHg 79%
    23:00 +13°C° 0 mm 9 mps 764 mmHg 79%

    28 January, Monday

    Time Temperature Precipitation Wind Pressure Humidity
    00:00 +13°C° 0 mm 8 mps 764 mmHg 79%
    01:00 +14°C° 0.1 mm 7 mps 764 mmHg 81%
    02:00 +13°C° 0.1 mm 6 mps 764 mmHg 83%
    03:00 +13°C° 0.1 mm 5 mps 764 mmHg 85%
    04:00 +13°C° 0.3 mm 5 mps 765 mmHg 84%
    05:00 +13°C° 0.3 mm 4 mps 765 mmHg 82%
    06:00 +13°C° 0.3 mm 4 mps 765 mmHg 81%
    07:00 +13°C° 0.1 mm 4 mps 766 mmHg 77%
    08:00 +14°C° 0.1 mm 4 mps 766 mmHg 72%
    09:00 +14°C° 0.1 mm 4 mps 767 mmHg 68%
    10:00 +15°C° 0 mm 5 mps 767 mmHg 64%
    11:00 +15°C° 0 mm 6 mps 767 mmHg 60%
    12:00 +16°C° 0 mm 7 mps 767 mmHg 56%
    13:00 +16°C° 0 mm 7 mps 766 mmHg 53%
    14:00 +16°C° 0 mm 8 mps 766 mmHg 51%
    15:00 +16°C° 0 mm 8 mps 765 mmHg 48%
    16:00 +15°C° 0 mm 8 mps 765 mmHg 53%
    17:00 +14°C° 0 mm 7 mps 765 mmHg 57%
    18:00 +14°C° 0 mm 7 mps 766 mmHg 61%
    19:00 +14°C° 0 mm 7 mps 766 mmHg 63%
    20:00 +12°C° 0 mm 8 mps 767 mmHg 64%
    21:00 +12°C° 0 mm 9 mps 767 mmHg 65%
    22:00 +12°C° 0 mm 8 mps 767 mmHg 67%
    23:00 +12°C° 0 mm 8 mps 767 mmHg 69%

    29 January, Tuesday

    Time Temperature Precipitation Wind Pressure Humidity
    00:00 +12°C° 0 mm 8 mps 767 mmHg 71%
    01:00 +12°C° 0 mm 7 mps 767 mmHg 72%
    02:00 +11°C° 0 mm 7 mps 767 mmHg 74%
    03:00 +11°C° 0 mm 6 mps 767 mmHg 76%
    04:00 +11°C° 0 mm 6 mps 767 mmHg 76%
    05:00 +11°C° 0 mm 6 mps 767 mmHg 76%
    06:00 +12°C° 0 mm 5 mps 767 mmHg 76%
    07:00 +12°C° 0 mm 5 mps 767 mmHg 72%
    08:00 +13°C° 0 mm 5 mps 767 mmHg 68%
    09:00 +13°C° 0 mm 4 mps 768 mmHg 64%
    10:00 +14°C° 0 mm 4 mps 767 mmHg 60%
    11:00 +15°C° 0 mm 4 mps 767 mmHg 56%
    12:00 +17°C° 0 mm 4 mps 767 mmHg 52%
    13:00 +17°C° 0 mm 4 mps 767 mmHg 54%
    14:00 +17°C° 0 mm 5 mps 767 mmHg 57%
    15:00 +17°C° 0 mm 5 mps 766 mmHg 59%
    16:00 +17°C° 0 mm 4 mps 766 mmHg 66%
    17:00 +15°C° 0 mm 4 mps 767 mmHg 72%
    18:00 +14°C° 0 mm 3 mps 767 mmHg 79%
    19:00 +13°C° 0 mm 3 mps 767 mmHg 81%
    20:00 +13°C° 0 mm 3 mps 767 mmHg 83%
    21:00 +13°C° 0 mm 3 mps 768 mmHg 86%
    22:00 +12°C° 0 mm 3 mps 768 mmHg 86%
    23:00 +13°C° 0 mm 2 mps 768 mmHg 87%
    Show more